Location: Unspecified
(49.2170°N, 0.0000°E)
Time: 12:39:29
(UTC+00:00)

Vanguard 3 - Pass Details

Date: 26 January 2021
Orbit: 508 x 3261 km, 33.3° (Epoch: 28 February)

Event Time Altitude Azimuth Distance (km) Brightness Sun altitude
Rises 08:12:48 0° 261° (W) 4,738 10.6 3.9°
Reaches altitude 10° 08:16:27 10° 247° (WSW) 4,160 10.5 4.4°
Maximum altitude 08:24:51 23° 202° (SSW) 4,017 10.9 5.5°
Drops below altitude 10° 08:36:16 10° 160° (SSE) 5,786 12.7 7.0°
Sets 08:42:48 0° 148° (SSE) 7,081 13.6 7.8°
